User: anonymous   Login
Location: Unspecified
(0.0000°N, 0.0000°E)
Time: 02:21:53
(UTC+00:00)
Language:

Traac - Orbit

View from above orbital plane
View from above orbital plane
View from above satellite
View from above satellite

Ground track
Ground track

The orbit data is extracted from the following two-line orbital elements,

1   205U 61031B   17343.88918929 +.00000055 +00000-0 +40344-4 0  9999
2   205 032.4397 226.2915 0102088 154.5733 205.9955 13.62396350794509
Epoch (UTC): 09 December 2017 21:20:25
Eccentricity: 0.0102088
inclination: 32.4397°
perigee height: 951 km
apogee height: 1102 km
right ascension of ascending node: 226.2915°
argument of perigee: 154.5733°
revolutions per day: 13.62396350
mean anomaly at epoch: 205.9955°
orbit number at epoch: 79450

The dashed part of the orbit path shows where the satellite is in the earth's shadow,  

DLR